TimeCST,TemperatureF,Dew PointF,Humidity,Sea Level PressureIn,VisibilityMPH,Wind Direction,Wind SpeedMPH,Gust SpeedMPH,PrecipitationIn,Events,Conditions,WindDirDegrees,DateUTC
12:15 AM,26.6,24.8,93,29.81,10.0,ENE,8.1,-,N/A,,Overcast,70,2013-12-04 06:15:00
12:35 AM,26.6,24.8,93,29.80,10.0,East,11.5,16.1,N/A,,Overcast,80,2013-12-04 06:35:00
12:52 AM,26.6,24.8,93,29.79,10.0,East,9.2,-,N/A,,Overcast,80,2013-12-04 06:52:00
1:15 AM,26.6,24.8,93,29.80,10.0,ENE,10.4,-,N/A,,Overcast,70,2013-12-04 07:15:00
1:34 AM,26.6,24.8,93,29.79,10.0,East,13.8,-,N/A,,Overcast,80,2013-12-04 07:34:00
1:52 AM,26.6,24.8,93,29.78,10.0,East,9.2,-,N/A,,Overcast,80,2013-12-04 07:52:00
2:15 AM,26.6,24.8,93,29.79,10.0,ENE,10.4,-,N/A,,Overcast,70,2013-12-04 08:15:00
2:35 AM,26.6,24.8,93,29.78,10.0,East,9.2,-,N/A,,Overcast,80,2013-12-04 08:35:00
2:53 AM,26.6,24.8,93,29.78,7.0,East,11.5,-,N/A,Snow,Light Snow,80,2013-12-04 08:53:00
3:15 AM,24.8,23.0,93,29.78,2.0,NE,8.1,-,N/A,Snow,Light Snow,40,2013-12-04 09:15:00
3:35 AM,24.8,23.0,93,29.77,1.8,NE,8.1,-,N/A,Snow,Light Snow,40,2013-12-04 09:35:00
3:53 AM,23.0,21.2,93,29.76,2.5,NE,8.1,-,0.01,Snow,Light Snow,40,2013-12-04 09:53:00
4:15 AM,23.0,21.2,93,29.74,3.0,NE,8.1,-,N/A,Snow,Light Snow,40,2013-12-04 10:15:00
4:34 AM,23.0,21.2,93,29.77,3.0,NE,5.8,-,N/A,Snow,Light Snow,40,2013-12-04 10:34:00
4:53 AM,23.0,21.2,93,29.76,2.0,NNE,8.1,-,N/A,Snow,Light Snow,30,2013-12-04 10:53:00
5:15 AM,23.0,21.2,93,29.76,2.5,NNE,8.1,-,N/A,Snow,Light Snow,30,2013-12-04 11:15:00
5:35 AM,23.0,21.2,93,29.75,1.8,NNE,6.9,-,N/A,Snow,Light Snow,30,2013-12-04 11:35:00
5:52 AM,21.2,21.2,100,29.74,3.0,NE,8.1,-,0.01,Snow,Light Snow,40,2013-12-04 11:52:00
6:15 AM,21.2,19.4,93,29.73,4.0,NE,9.2,-,N/A,Snow,Light Snow,40,2013-12-04 12:15:00
6:35 AM,21.2,19.4,93,29.74,2.5,NNE,8.1,-,N/A,Snow,Light Snow,30,2013-12-04 12:35:00
6:53 AM,21.2,19.4,93,29.73,3.0,NE,9.2,-,N/A,Snow,Light Snow,40,2013-12-04 12:53:00
7:14 AM,21.2,19.4,93,29.72,3.0,NNE,8.1,-,N/A,Snow,Light Snow,30,2013-12-04 13:14:00
7:34 AM,19.4,17.6,93,29.70,3.0,NE,10.4,-,N/A,Snow,Light Snow,40,2013-12-04 13:34:00
7:53 AM,19.4,17.6,93,29.69,1.8,NE,9.2,-,N/A,Snow,Light Snow,40,2013-12-04 13:53:00
8:14 AM,19.4,17.6,93,29.69,1.2,NE,10.4,-,N/A,Snow,Light Snow,40,2013-12-04 14:14:00
8:34 AM,19.4,17.6,93,29.70,1.2,NNE,8.1,-,N/A,Snow,Light Snow,30,2013-12-04 14:34:00
8:52 AM,19.4,17.6,93,29.70,1.2,NNE,8.1,-,0.01,Snow,Light Snow,30,2013-12-04 14:52:00
9:14 AM,19.4,17.6,93,29.70,1.2,NNE,8.1,-,N/A,Snow,Light Snow,30,2013-12-04 15:14:00
9:34 AM,19.4,17.6,93,29.70,1.5,North,6.9,-,N/A,Snow,Light Snow,10,2013-12-04 15:34:00
9:52 AM,19.4,17.6,93,29.68,1.5,NNE,9.2,-,N/A,Snow,Light Snow,20,2013-12-04 15:52:00
10:14 AM,17.6,15.8,93,29.67,1.0,North,9.2,-,N/A,Snow,Light Snow,10,2013-12-04 16:14:00
10:34 AM,17.6,15.8,93,29.66,1.8,North,12.7,-,N/A,Snow,Light Snow,10,2013-12-04 16:34:00
10:53 AM,17.6,15.8,93,29.65,1.0,North,10.4,-,N/A,Snow,Light Snow,10,2013-12-04 16:53:00
11:15 AM,17.6,15.8,93,29.63,0.8,NNE,8.1,-,0.01,Snow,Light Snow,20,2013-12-04 17:15:00
11:35 AM,17.6,15.8,93,29.61,0.8,North,11.5,-,0.01,Snow,Light Snow,10,2013-12-04 17:35:00
11:53 AM,17.6,15.8,93,29.62,1.0,North,10.4,-,0.01,Snow,Light Snow,360,2013-12-04 17:53:00
12:15 PM,17.6,15.8,93,29.61,0.8,North,10.4,-,N/A,Snow,Light Snow,10,2013-12-04 18:15:00
12:35 PM,17.6,15.8,93,29.59,0.8,North,11.5,16.1,0.01,Snow,Light Snow,10,2013-12-04 18:35:00
12:52 PM,17.6,15.8,93,29.59,0.8,North,8.1,11.5,0.01,Snow,Light Snow,10,2013-12-04 18:52:00
1:15 PM,17.6,15.8,93,29.58,0.5,NNE,9.2,-,N/A,Snow,Light Snow,20,2013-12-04 19:15:00
1:35 PM,17.6,15.8,93,29.56,0.8,NNE,9.2,12.7,0.01,Snow,Light Snow,20,2013-12-04 19:35:00
1:53 PM,17.6,15.8,93,29.55,0.8,NNE,10.4,-,0.01,Snow,Light Snow,20,2013-12-04 19:53:00
2:15 PM,17.6,15.8,93,29.55,1.0,North,10.4,-,N/A,Snow,Light Snow,10,2013-12-04 20:15:00
2:35 PM,17.6,15.8,93,29.54,1.2,North,9.2,-,N/A,Snow,Light Snow,360,2013-12-04 20:35:00
2:52 PM,19.4,15.8,86,29.53,0.8,North,11.5,-,N/A,Snow,Light Snow,10,2013-12-04 20:52:00
3:15 PM,19.4,15.8,86,29.53,2.0,North,9.2,-,N/A,Snow,Light Snow,10,2013-12-04 21:15:00
3:35 PM,17.6,15.8,93,29.53,3.0,NNW,8.1,-,N/A,Snow,Light Snow,340,2013-12-04 21:35:00
3:52 PM,17.6,15.8,93,29.53,3.0,NNW,8.1,-,N/A,Snow,Light Snow,330,2013-12-04 21:52:00
4:14 PM,17.6,15.8,93,29.53,10.0,NNW,8.1,-,N/A,Snow,Light Snow,330,2013-12-04 22:14:00
4:34 PM,17.6,15.8,93,29.55,7.0,NW,8.1,-,N/A,Snow,Light Snow,310,2013-12-04 22:34:00
4:53 PM,17.6,15.8,93,29.54,7.0,NW,8.1,-,N/A,Snow,Light Snow,310,2013-12-04 22:53:00
4:55 PM,17.6,15.8,93,29.54,7.0,WNW,8.1,-,N/A,Snow,Light Snow,300,2013-12-04 22:55:00
5:21 PM,17.6,15.8,93,29.54,2.0,WNW,9.2,-,N/A,,Overcast,300,2013-12-04 23:21:00
5:44 PM,17.6,15.8,93,29.53,2.5,NW,11.5,18.4,N/A,Snow,Light Snow,310,2013-12-04 23:44:00
5:53 PM,17.6,15.8,93,29.53,3.0,NW,11.5,-,N/A,Snow,Light Snow,310,2013-12-04 23:53:00
6:15 PM,15.8,14.0,93,29.55,3.0,West,8.1,-,N/A,Snow,Light Snow,280,2013-12-05 00:15:00
6:35 PM,15.8,12.2,86,29.54,2.5,WNW,10.4,-,N/A,Snow,Light Snow,290,2013-12-05 00:35:00
6:53 PM,15.8,12.2,86,29.54,2.5,WNW,10.4,-,N/A,Snow,Light Snow,290,2013-12-05 00:53:00
7:15 PM,15.8,12.2,86,29.55,2.5,WNW,10.4,-,N/A,Snow,Light Snow,290,2013-12-05 01:15:00
7:35 PM,15.8,12.2,86,29.54,2.5,WNW,11.5,-,N/A,Snow,Light Snow,290,2013-12-05 01:35:00
7:53 PM,14.0,10.4,86,29.54,3.0,WNW,10.4,-,N/A,Snow,Light Snow,290,2013-12-05 01:53:00
8:15 PM,12.2,10.4,92,29.54,4.0,WNW,12.7,18.4,N/A,Snow,Light Snow,290,2013-12-05 02:15:00
8:35 PM,12.2,8.6,85,29.56,3.0,WNW,10.4,-,N/A,Snow,Light Snow,290,2013-12-05 02:35:00
8:52 PM,12.2,8.6,85,29.56,2.5,WNW,15.0,19.6,N/A,Snow,Light Snow,290,2013-12-05 02:52:00
9:14 PM,10.4,8.6,92,29.57,3.0,West,11.5,20.7,N/A,Snow,Light Snow,280,2013-12-05 03:14:00
9:34 PM,10.4,6.8,85,29.57,3.0,WNW,15.0,20.7,N/A,Snow,Light Snow,290,2013-12-05 03:34:00
9:53 PM,10.4,6.8,85,29.59,4.0,WNW,12.7,23.0,N/A,Snow,Light Snow,290,2013-12-05 03:53:00
10:15 PM,10.4,6.8,85,29.60,7.0,West,12.7,16.1,N/A,Snow,Light Snow,280,2013-12-05 04:15:00
10:35 PM,10.4,6.8,85,29.60,4.0,West,15.0,19.6,N/A,Snow,Light Snow,280,2013-12-05 04:35:00
10:53 PM,8.6,6.8,92,29.61,3.0,West,13.8,-,N/A,Snow,Light Snow,280,2013-12-05 04:53:00
11:15 PM,8.6,6.8,92,29.61,3.0,WNW,16.1,24.2,N/A,Snow,Light Snow,290,2013-12-05 05:15:00
11:35 PM,8.6,5.0,85,29.61,2.0,West,13.8,21.9,N/A,Snow,Light Snow,280,2013-12-05 05:35:00
11:52 PM,8.6,3.2,79,29.62,2.5,West,16.1,25.3,N/A,Snow,Light Snow,280,2013-12-05 05:52:00